Amsterdam, Netherlands

6:31 AM CEST on July 16, 2018 (GMT +0200)
Schiphol

Weather History for EHAM - July, 2018

Change the Weather History Date:

Thursday, July 12, 2018

  Actual Average Record
Temperature  
Mean Temperature 65 °F -  
Max Temperature 73 °F 68 °F 80 °F (1999)
Min Temperature 57 °F 54 °F 49 °F (2012)
Growing Degree Days 15 (Base 50)    
Moisture  
Dew Point 57 °F    
Average Humidity 78    
Maximum Humidity 100    
Minimum Humidity 45    
Precipitation  
Precipitation 0.00 in - - ()
Sea Level Pressure  
Sea Level Pressure 30.11 in    
Wind  
Wind Speed 8 mph ()    
Max Wind Speed 15 mph    
Max Gust Speed -    
Visibility 8.9 miles    
Events      
Averages and records for this station are not official NWS values.
T = Trace of Precipitation, MM = Missing Value Source: Averaged Metar Reports

Daily Weather History Graph

Daily Weather History Graph

Search for Another Location

Airport or City:

Astronomy

Jul. 12, 2018 Rise Set
Actual Time 5:33 AM CEST 9:58 PM CEST
Civil Twilight 4:46 AM CEST 10:45 PM CEST
Nautical Twilight 3:35 AM CEST 11:55 PM CEST
Astronomical Twilight 2:18 AM CEST 1:14 AM CEST
Moon 4:49 AM CEST (7/12) 9:22 PM CEST (7/12)
Length of Visible Light 17h 58m
Length of Day
16h 25m
Waning Crescent, 1% of the Moon is Illuminated
Jul 12
Waning Crescent
Jul 13
New
Jul 19
First Quarter
Jul 27
Full
Aug 4
Last Quarter

Hourly Weather History & Observations

Time (CEST) Temp. Dew Point Humidity Pressure Visibility Wind Dir Wind Speed Gust Speed Precip Events Conditions
12:00 AM 59 °F 57 °F 91% 30.09 in 6 mi NW 4.5 mph - -  
12:25 AM 59.0 °F 57.2 °F 94% 30.09 in - NW 4.6 mph - N/A   Clear
12:55 AM 59.0 °F 57.2 °F 94% 30.09 in - NNW 4.6 mph - N/A   Clear
1:00 AM 58 °F 57 °F 94% 30.10 in 7 mi NNW 4.5 mph - -   Partly Cloudy
1:25 AM 59.0 °F 57.2 °F 94% 30.09 in - NNW 5.8 mph - N/A   Clear
1:55 AM 57.2 °F 57.2 °F 100% 30.09 in - NW 5.8 mph - N/A   Clear
2:00 AM 57 °F 56 °F 97% 30.10 in 5 mi NW 6.7 mph - -   Mist
2:25 AM 57.2 °F 57.2 °F 100% 30.09 in - NNW 5.8 mph - N/A   Clear
2:55 AM 59.0 °F 57.2 °F 94% 30.09 in - NNW 6.9 mph - N/A   Clear
3:00 AM 58 °F 57 °F 96% 30.09 in 7 mi NNW 6.7 mph - -   Partly Cloudy
3:25 AM 59.0 °F 59.0 °F 100% 30.09 in - NNW 6.9 mph - N/A   Clear
3:55 AM 59.0 °F 57.2 °F 94% 30.06 in 5.6 mi NW 6.9 mph - N/A   Partly Cloudy
4:00 AM 59 °F 58 °F 94% 30.09 in 5 mi NW 6.7 mph - -   Mist
4:25 AM 59.0 °F 57.2 °F 94% 30.06 in 5.6 mi NNW 8.1 mph - N/A   Partly Cloudy
4:55 AM 59.0 °F 59.0 °F 100% 30.06 in 5.6 mi NNW 8.1 mph - N/A   Partly Cloudy
5:00 AM 59 °F 58 °F 95% 30.09 in 6 mi NNW 6.7 mph - -   Mist
5:25 AM 59.0 °F 59.0 °F 100% 30.06 in 5.6 mi NNW 9.2 mph - N/A   Partly Cloudy
5:55 AM 59.0 °F 57.2 °F 94% 30.06 in 5.0 mi NW 8.1 mph - N/A   Partly Cloudy
6:00 AM 59 °F 58 °F 94% 30.09 in 4 mi NW 8.9 mph - -   Mist
6:25 AM 59.0 °F 59.0 °F 100% 30.06 in 5.6 mi NNW 11.5 mph - N/A   Scattered Clouds
6:55 AM 60.8 °F 59.0 °F 94% 30.09 in 6.2 mi NNW 12.7 mph - N/A   Mostly Cloudy
7:00 AM 61 °F 59 °F 90% 30.09 in 9 mi NNW 11.2 mph - -   Partly Cloudy
7:25 AM 60.8 °F 59.0 °F 94% 30.09 in 6.2 mi NNW 12.7 mph - N/A   Mostly Cloudy
7:55 AM 60.8 °F 59.0 °F 94% 30.09 in 6.2 mi Variable 9.2 mph - N/A   Mostly Cloudy
8:00 AM 61 °F 58 °F 88% 30.10 in 10 mi NNW 11.2 mph - -   Partly Cloudy
8:25 AM 62.6 °F 59.0 °F 88% 30.09 in 6.2 mi North 10.4 mph - N/A   Mostly Cloudy
8:55 AM 62.6 °F 57.2 °F 82% 30.09 in 6.2 mi NNW 10.4 mph - N/A   Mostly Cloudy
9:00 AM 62 °F 58 °F 81% 30.12 in 11 mi NNW 11.2 mph - -   Overcast
9:25 AM 62.6 °F 57.2 °F 82% 30.09 in 6.2 mi NNW 11.5 mph - N/A   Mostly Cloudy
9:55 AM 66.2 °F 59.0 °F 78% 30.09 in 6.2 mi NW 11.5 mph - N/A   Scattered Clouds
10:25 AM 66.2 °F 57.2 °F 73% 30.12 in 6.2 mi NNW 10.4 mph - N/A   Partly Cloudy
10:55 AM 68.0 °F 59.0 °F 73% 30.12 in 6.2 mi NNW 8.1 mph - N/A   Partly Cloudy
11:00 AM 68 °F 58 °F 61% 30.13 in 17 mi NW 8.9 mph - -  
11:25 AM 69.8 °F 59.0 °F 68% 30.12 in 6.2 mi North 9.2 mph - N/A   Partly Cloudy
11:55 AM 69.8 °F 57.2 °F 64% 30.12 in 6.2 mi NNW 9.2 mph - N/A   Partly Cloudy
12:00 PM 71 °F 57 °F 51% 30.13 in 18 mi NNW 11.2 mph - -  
12:25 PM 71.6 °F 57.2 °F 60% 30.12 in 6.2 mi NNW 10.4 mph - N/A   Partly Cloudy
12:55 PM 71.6 °F 59.0 °F 64% 30.12 in 6.2 mi NW 11.5 mph - N/A   Partly Cloudy
1:25 PM 71.6 °F 57.2 °F 60% 30.12 in - North 10.4 mph - N/A   Clear
1:55 PM 73.4 °F 57.2 °F 57% 30.12 in - North 11.5 mph - N/A   Clear
2:00 PM 73 °F 56 °F 45% 30.13 in 19 mi NNW 8.9 mph - -   Partly Cloudy
2:25 PM 73.4 °F 57.2 °F 57% 30.12 in - NW 13.8 mph - N/A   Clear
2:55 PM 73.4 °F 59.0 °F 61% 30.12 in - NW 13.8 mph - N/A   Clear
3:00 PM 72 °F 58 °F 52% 30.13 in 19 mi NW 13.4 mph - -   Partly Cloudy
3:25 PM 71.6 °F 57.2 °F 60% 30.12 in - WNW 12.7 mph - N/A   Clear
3:55 PM 73.4 °F 57.2 °F 57% 30.12 in - NNW 12.7 mph - N/A   Clear
4:25 PM 71.6 °F 57.2 °F 60% 30.12 in - NW 11.5 mph - N/A   Clear
4:55 PM 71.6 °F 57.2 °F 60% 30.12 in - NW 13.8 mph - N/A   Clear
5:00 PM 71 °F 58 °F 53% 30.12 in 19 mi NW 13.4 mph - -  
5:25 PM 71.6 °F 57.2 °F 60% 30.12 in - NW 15.0 mph - N/A   Clear
5:55 PM 69.8 °F 55.4 °F 60% 30.12 in - NNW 12.7 mph - N/A   Clear
6:00 PM 70 °F 57 °F 53% 30.13 in 19 mi NW 13.4 mph - -   Partly Cloudy
6:25 PM 69.8 °F 57.2 °F 64% 30.12 in - NNW 12.7 mph - N/A   Clear
6:55 PM 68.0 °F 57.2 °F 68% 30.12 in - NW 12.7 mph - N/A   Clear
7:25 PM 68.0 °F 57.2 °F 68% 30.12 in - NW 13.8 mph - N/A   Clear
7:55 PM 66.2 °F 55.4 °F 68% 30.12 in - NNW 12.7 mph - N/A   Clear
8:00 PM 66 °F 56 °F 62% 30.14 in 25 mi NNW 13.4 mph - -   Partly Cloudy
8:25 PM 66.2 °F 55.4 °F 68% 30.12 in - NW 12.7 mph - N/A   Clear
8:55 PM 64.4 °F 55.4 °F 73% 30.12 in - NW 10.4 mph - N/A   Clear
9:00 PM 64 °F 56 °F 68% 30.14 in 22 mi NW 11.2 mph - -  
9:25 PM 62.6 °F 55.4 °F 77% 30.12 in - NW 11.5 mph - N/A   Clear
9:55 PM 62.6 °F 55.4 °F 77% 30.12 in - NNW 11.5 mph - N/A   Clear
10:00 PM 62 °F 56 °F 76% 30.15 in 17 mi NNW 8.9 mph - -  
10:25 PM 60.8 °F 55.4 °F 82% 30.15 in - NNW 9.2 mph - N/A   Clear
10:55 PM 60.8 °F 55.4 °F 82% 30.15 in - NNW 10.4 mph - N/A   Clear
11:00 PM 60 °F 56 °F 81% 30.15 in 17 mi NNW 8.9 mph - -  
11:25 PM 59.0 °F 55.4 °F 88% 30.15 in - NNW 6.9 mph - N/A   Clear
11:55 PM 59.0 °F 55.4 °F 88% 30.15 in - North 6.9 mph - N/A   Clear